TimeMDT,TemperatureF,Dew PointF,Humidity,Sea Level PressureIn,VisibilityMPH,Wind Direction,Wind SpeedMPH,Gust SpeedMPH,PrecipitationIn,Events,Conditions,WindDirDegrees,DateUTC
12:43 AM,84.2,62.6,48,29.92,10.0,Calm,Calm,-,N/A,,Clear,0,2013-07-22 06:43:00
1:44 AM,80.6,68.0,65,29.92,10.0,Calm,Calm,-,N/A,,Clear,0,2013-07-22 07:44:00
2:46 AM,80.6,68.0,65,29.86,10.0,Calm,Calm,-,N/A,,Clear,0,2013-07-22 08:46:00
3:44 AM,80.6,71.6,74,29.92,10.0,Calm,Calm,-,N/A,,Clear,0,2013-07-22 09:44:00
4:44 AM,78.8,69.8,74,29.92,10.0,Calm,Calm,-,N/A,,Clear,0,2013-07-22 10:44:00
5:46 AM,78.8,68.0,69,29.88,10.0,Calm,Calm,-,N/A,,Clear,0,2013-07-22 11:46:00
6:43 AM,80.6,69.8,70,29.94,10.0,ENE,4.6,-,N/A,,Partly Cloudy,70,2013-07-22 12:43:00
7:41 AM,80.6,71.6,74,29.95,10.0,East,6.9,-,N/A,,Partly Cloudy,80,2013-07-22 13:41:00
8:35 AM,82,72,63,29.93,7,NE,2.2,,,,Clear,40,2013-07-22 14:35:00
8:42 AM,84.2,71.6,66,29.94,10.0,East,6.9,-,N/A,,Partly Cloudy,80,2013-07-22 14:42:00
9:50 AM,86.0,69.8,58,29.98,10.0,East,4.6,-,N/A,,Partly Cloudy,80,2013-07-22 15:50:00
10:48 AM,89.6,68.0,49,29.98,10.0,East,6.9,-,N/A,,Partly Cloudy,80,2013-07-22 16:48:00
11:31 AM,92,68,35,29.93,7,NE,2.2,,,,Clear,40,2013-07-22 17:31:00
11:43 AM,91.4,66.2,43,29.93,10.0,SE,9.2,-,N/A,,Partly Cloudy,130,2013-07-22 17:43:00
12:58 PM,93.2,62.6,36,29.96,10.0,ESE,4.6,-,N/A,,Partly Cloudy,110,2013-07-22 18:58:00
1:47 PM,95.0,62.6,34,29.95,10.0,East,8.1,-,N/A,,Scattered Clouds,100,2013-07-22 19:47:00
2:40 PM,98,66,25,29.87,7,WSW,6.7,,,,Scattered Clouds,250,2013-07-22 20:40:00
2:40 PM,96.8,60.8,30,29.86,10.0,WSW,6.9,-,N/A,,Scattered Clouds,250,2013-07-22 20:40:00
3:43 PM,96.8,62.6,32,29.90,10.0,SSE,5.8,-,N/A,,Partly Cloudy,160,2013-07-22 21:43:00
4:47 PM,96.8,60.8,30,29.87,10.0,West,4.6,-,N/A,,Partly Cloudy,260,2013-07-22 22:47:00
5:40 PM,100,64,21,29.81,7,West,4.5,,,,Scattered Clouds,270,2013-07-22 23:40:00
5:45 PM,96.8,60.8,30,29.84,10.0,Calm,Calm,-,N/A,,Partly Cloudy,0,2013-07-22 23:45:00
6:48 PM,96.8,62.6,32,29.86,10.0,South,6.9,-,N/A,,Partly Cloudy,180,2013-07-23 00:48:00
7:43 PM,95.0,66.2,39,29.87,10.0,SW,12.7,-,N/A,,Clear,230,2013-07-23 01:43:00
8:41 PM,91.4,66.2,43,29.84,10.0,SW,10.4,-,N/A,,Clear,220,2013-07-23 02:41:00
9:41 PM,89.6,66.2,46,29.92,10.0,WSW,8.1,-,N/A,,Clear,240,2013-07-23 03:41:00
10:40 PM,87.8,66.2,49,29.93,10.0,WSW,4.6,-,N/A,,Clear,250,2013-07-23 04:40:00
11:43 PM,86.0,64.4,48,29.90,10.0,Calm,Calm,-,N/A,,Clear,0,2013-07-23 05:43:00